Duluth, MN

4:21 PM CST on December 08, 2016 (GMT -0600)
Duluth International

Weather History for KDLH - June, 2013

Change the Weather History Date:

Wednesday, June 26, 2013

  Actual Average Record
Temperature  
Mean Temperature 71 °F 63 °F  
Max Temperature 80 °F 74 °F 92 °F (1931)
Min Temperature 61 °F 52 °F 36 °F (1982)
Degree Days  
Heating Degree Days 0 4  
Month to date heating degree days 145 165  
Since 1 June heating degree days 145 165  
Since 1 July heating degree days 9365 9430  
Cooling Degree Days 6 2  
Month to date cooling degree days 37 21  
Year to date cooling degree days 38 25  
Since 1 June cooling degree days 37 21  
Growing Degree Days 20 (Base 50)    
Moisture  
Dew Point 62 °F    
Average Humidity 80    
Maximum Humidity 87    
Minimum Humidity 73    
Precipitation  
Precipitation 0.10 in 0.15 in 1.71 in (1996)
Month to date precipitation 4.26 3.62  
Year to date precipitation 17.60 12.54  
Snow  
Snow 0.00 in 0.00 in 0.00 in (2002)
Month to date snowfall 0.0 0.0  
Since 1 June snowfall 0.0 0.0  
Since 1 July snowfall 129.4 86.1  
Snow Depth 0.00 in    
Sea Level Pressure  
Sea Level Pressure 29.72 in    
Wind  
Wind Speed 5 mph (SE)    
Max Wind Speed 16 mph    
Max Gust Speed 21 mph    
Visibility 8 miles    
Events Rain , Thunderstorm    
T = Trace of Precipitation, MM = Missing Value Source: NWS Daily Summary

Daily Weather History Graph

Daily Weather History Graph

Search for Another Location

Airport or City:

Trip Planner

Search our weather history database for the weather conditions in past years. The results will help you decide how hot, cold, wet, or windy it might be!

Date:

Astronomy

Jun. 26, 2013 Rise Set
Actual Time 5:16 AM CDT 9:07 PM CDT
Civil Twilight 4:36 AM CDT 9:46 PM CDT
Nautical Twilight 3:42 AM CDT 10:40 PM CDT
Astronomical Twilight 2:22 AM CDT 12:00 AM CDT
Moon 11:12 PM CDT (6/26) 9:23 AM CDT (6/26)
Length of Visible Light 17h 10m
Length of Day
15h 51m
Waning Gibbous, 85% of the Moon is Illuminated
Jun 26
Waning Gibbous
Jun 29
Last Quarter
Jul 8
New
Jul 15
First Quarter
Jul 22
Full

Hourly Weather History & Observations

Time (CDT) Temp. Dew Point Humidity Pressure Visibility Wind Dir Wind Speed Gust Speed Precip Events Conditions
12:55 AM 66.9 °F 60.1 °F 79% 29.73 in 10.0 mi ESE 3.5 mph - N/A   Partly Cloudy
1:55 AM 66.9 °F 61.0 °F 81% 29.71 in 10.0 mi ESE 5.8 mph - N/A   Partly Cloudy
2:55 AM 64.9 °F 60.1 °F 84% 29.71 in 10.0 mi East 5.8 mph - N/A   Scattered Clouds
3:55 AM 66.9 °F 61.0 °F 81% 29.73 in 10.0 mi Calm Calm - N/A   Scattered Clouds
4:02 AM 66.2 °F 60.8 °F 83% 29.74 in 10.0 mi Calm Calm - N/A   Overcast
4:10 AM 66.2 °F 60.8 °F 83% 29.74 in 10.0 mi Calm Calm - N/A   Mostly Cloudy
4:55 AM 66.9 °F 61.0 °F 81% 29.70 in 10.0 mi SSE 4.6 mph - N/A   Scattered Clouds
5:02 AM 66.2 °F 60.8 °F 83% 29.71 in 10.0 mi SE 8.1 mph - N/A   Mostly Cloudy
5:12 AM 66.2 °F 62.6 °F 88% 29.72 in 10.0 mi ESE 6.9 mph - N/A   Overcast
5:50 AM 66.2 °F 60.8 °F 83% 29.73 in 10.0 mi ESE 5.8 mph - N/A   Mostly Cloudy
5:55 AM 66.9 °F 61.0 °F 81% 29.70 in 10.0 mi ESE 4.6 mph - N/A   Mostly Cloudy
6:09 AM 66.2 °F 60.8 °F 83% 29.72 in 10.0 mi ESE 4.6 mph - N/A   Overcast
6:22 AM 66.2 °F 60.8 °F 83% 29.72 in 10.0 mi SE 5.8 mph - N/A   Scattered Clouds
6:55 AM 66.9 °F 61.0 °F 81% 29.69 in 10.0 mi ESE 5.8 mph - N/A   Scattered Clouds
7:12 AM 68.0 °F 62.6 °F 83% 29.70 in 10.0 mi ESE 8.1 mph - N/A   Mostly Cloudy
7:38 AM 68.0 °F 60.8 °F 78% 29.70 in 10.0 mi ESE 8.1 mph - N/A   Scattered Clouds
7:55 AM 66.9 °F 60.1 °F 79% 29.69 in 10.0 mi SE 9.2 mph - N/A   Scattered Clouds
8:02 AM 66.2 °F 60.8 °F 83% 29.70 in 10.0 mi SE 8.1 mph - N/A   Mostly Cloudy
8:55 AM 66.9 °F 60.1 °F 79% 29.70 in 10.0 mi ENE 6.9 mph - N/A   Overcast
9:55 AM 68.0 °F 62.1 °F 81% 29.69 in 9.0 mi East 6.9 mph - N/A   Overcast
10:55 AM 66.9 °F 61.0 °F 81% 29.72 in 6.0 mi SE 8.1 mph - N/A   Haze
11:07 AM 66.2 °F 60.8 °F 83% 29.74 in 2.0 mi Calm Calm - N/A   Haze
11:16 AM 64.4 °F 60.8 °F 88% 29.74 in 1.5 mi Calm Calm - 0.00 in   Light Drizzle
11:27 AM 64.4 °F 60.8 °F 88% 29.74 in 0.8 mi Calm Calm - 0.00 in   Light Drizzle
11:51 AM 66.2 °F 62.6 °F 88% 29.72 in 1.5 mi Calm Calm - 0.00 in   Light Drizzle
11:55 AM 66.9 °F 62.1 °F 84% 29.70 in 1.5 mi ESE 3.5 mph - 0.00 in   Light Drizzle
12:02 PM 66.2 °F 62.6 °F 88% 29.71 in 2.0 mi SE 4.6 mph - 0.00 in   Light Drizzle
12:29 PM 68.0 °F 62.6 °F 83% 29.71 in 1.0 mi Calm Calm - 0.00 in   Light Drizzle
12:42 PM 68.0 °F 62.6 °F 83% 29.72 in 0.8 mi Calm Calm - 0.00 in Rain Light Rain
12:55 PM 70.0 °F 64.9 °F 84% 29.71 in 1.0 mi WNW 3.5 mph - 0.01 in Rain Light Rain
1:05 PM 73.4 °F 66.2 °F 78% 29.72 in 6.0 mi Calm Calm - 0.00 in   Haze
1:55 PM 75.0 °F 64.9 °F 71% 29.70 in 7.0 mi South 3.5 mph - 0.00 in   Mostly Cloudy
2:02 PM 75.2 °F 66.2 °F 73% 29.71 in 10.0 mi Variable 3.5 mph - N/A   Scattered Clouds
2:38 PM 75.2 °F 64.4 °F 69% 29.73 in 10.0 mi SE 12.7 mph - N/A   Mostly Cloudy
2:55 PM 70.0 °F 60.1 °F 71% 29.73 in 10.0 mi ESE 10.4 mph - N/A   Mostly Cloudy
3:02 PM 69.8 °F 59.0 °F 68% 29.73 in 10.0 mi ESE 8.1 mph - N/A   Mostly Cloudy
3:15 PM 71.6 °F 60.8 °F 69% 29.72 in 10.0 mi ESE 11.5 mph - N/A Thunderstorm Thunderstorm
3:27 PM 66.2 °F 57.2 °F 73% 29.72 in 10.0 mi ESE 12.7 mph - N/A Thunderstorm Thunderstorm
3:50 PM 60.8 °F 57.2 °F 88% 29.76 in 3.0 mi East 11.5 mph - 0.02 in Rain , Thunderstorm Heavy Thunderstorms and Rain
3:55 PM 62.1 °F 57.9 °F 86% 29.75 in 3.0 mi Variable 6.9 mph - 0.06 in Rain , Thunderstorm Thunderstorms and Rain
4:17 PM 64.4 °F 60.8 °F 88% 29.75 in 6.0 mi SE 5.8 mph - 0.03 in Rain , Thunderstorm Light Thunderstorms and Rain
4:29 PM 66.2 °F 60.8 °F 83% 29.76 in 7.0 mi SSE 6.9 mph - 0.03 in   Mostly Cloudy
4:55 PM 66.9 °F 63.0 °F 87% 29.74 in 10.0 mi Calm Calm - 0.03 in   Overcast
5:55 PM 73.9 °F 66.9 °F 79% 29.73 in 10.0 mi West 3.5 mph - N/A   Scattered Clouds
6:55 PM 77.0 °F 68.0 °F 74% 29.72 in 10.0 mi Calm Calm - N/A   Partly Cloudy
7:55 PM 77.0 °F 68.0 °F 74% 29.72 in 10.0 mi SW 4.6 mph - N/A   Partly Cloudy
8:55 PM 70.0 °F 64.0 °F 81% 29.74 in 10.0 mi South 3.5 mph - N/A   Partly Cloudy
9:55 PM 70.0 °F 64.0 °F 81% 29.77 in 10.0 mi Calm Calm - N/A   Partly Cloudy
10:55 PM 69.1 °F 63.0 °F 81% 29.78 in 10.0 mi West 3.5 mph - N/A   Partly Cloudy
11:55 PM 70.0 °F 62.1 °F 76% 29.78 in 10.0 mi WNW 4.6 mph - N/A   Partly Cloudy